Weather History for Imperial, NE

Change the Weather History Date:

Tuesday, July 15, 2014

  Actual Average Record
Temperature  
Mean Temperature 60 °F 77 °F  
Max Temperature 70 °F 92 °F 113 °F (1925)
Min Temperature 50 °F 62 °F 50 °F (1909)
Degree Days  
Heating Degree Days 5 0  
Month to date heating degree days 5 0  
Since 1 June heating degree days 34 34  
Cooling Degree Days 0 12  
Month to date cooling degree days 139 164  
Year to date cooling degree days 367 392  
Since 1 June cooling degree days 306 348  
Growing Degree Days 10 (Base 50)    
Moisture  
Dew Point 49 °F    
Average Humidity 64    
Maximum Humidity 83    
Minimum Humidity 44    
Precipitation  
Precipitation T in 0.11 in 1.94 in (1995)
Sea Level Pressure  
Sea Level Pressure 30.16 in    
Wind  
Wind Speed 8 mph (SE)    
Max Wind Speed 15 mph    
Max Gust Speed 20 mph    
Visibility 10 miles    
Events      
T = Trace of Precipitation, MM = Missing Value Source: NWS Daily Summary

Daily Weather History Graph

Daily Weather History Graph

Search for Another Location

Airport:

Trip Planner

Search our weather history database for the weather conditions in past years. The results will help you decide how hot, cold, wet, or windy it might be!

Date:

Astronomy

Jul. 15, 2014 Rise Set
Actual Time 5:28 AM MDT 8:15 PM MDT
Civil Twilight 4:56 AM MDT 8:47 PM MDT
Nautical Twilight 4:16 AM MDT 9:28 PM MDT
Astronomical Twilight 3:29 AM MDT 10:14 PM MDT
Moon 10:23 PM MDT (7/15) 9:26 AM MDT (7/15)
Length of Visible Light 15h 51m
Length of Day
14h 46m
Waning Gibbous, 85% of the Moon is Illuminated
Jul 15
Waning Gibbous
Jul 18
Last Quarter
Jul 26
New
Aug 3
First Quarter
Aug 10
Full

Hourly Weather History & Observations

Time (MDT) Temp. Dew Point Humidity Pressure Visibility Wind Dir Wind Speed Gust Speed Precip Events Conditions
12:53 AM 54.0 °F 46.0 °F 75% 30.25 in 10.0 mi Calm Calm - N/A   Clear
1:53 AM 52.0 °F 45.0 °F 77% 30.23 in 10.0 mi East 4.6 mph - N/A   Clear
2:53 AM 51.1 °F 46.0 °F 83% 30.22 in 10.0 mi NE 4.6 mph - N/A   Clear
3:53 AM 51.1 °F 45.0 °F 80% 30.23 in 10.0 mi SW 5.8 mph - N/A   Clear
4:53 AM 52.0 °F 46.0 °F 80% 30.24 in 10.0 mi Calm Calm - N/A   Mostly Cloudy
5:53 AM 51.1 °F 46.9 °F 86% 30.23 in 10.0 mi NE 3.5 mph - N/A   Mostly Cloudy
6:53 AM 55.0 °F 48.0 °F 77% 30.22 in 10.0 mi East 4.6 mph - N/A   Overcast
7:53 AM 57.0 °F 48.0 °F 72% 30.23 in 10.0 mi SE 8.1 mph - 0.00 in   Mostly Cloudy
8:53 AM 60.1 °F 46.9 °F 62% 30.24 in 10.0 mi SE 6.9 mph - N/A   Overcast
9:53 AM 63.0 °F 46.9 °F 56% 30.22 in 10.0 mi ESE 9.2 mph - N/A   Overcast
10:53 AM 66.0 °F 46.0 °F 48% 30.21 in 10.0 mi SE 10.4 mph - N/A   Overcast
11:53 AM 69.1 °F 46.0 °F 44% 30.18 in 10.0 mi South 13.8 mph - N/A   Mostly Cloudy
12:53 PM 68.0 °F 48.0 °F 49% 30.18 in 10.0 mi South 11.5 mph - N/A   Overcast
1:53 PM 68.0 °F 48.9 °F 50% 30.16 in 10.0 mi South 11.5 mph - N/A   Overcast
2:53 PM 68.0 °F 48.9 °F 50% 30.14 in 10.0 mi South 13.8 mph - N/A   Overcast
3:53 PM 70.0 °F 50.0 °F 49% 30.09 in 10.0 mi SSE 13.8 mph - N/A   Overcast
4:53 PM 66.9 °F 48.9 °F 52% 30.11 in 10.0 mi South 9.2 mph - N/A   Overcast
5:53 PM 64.9 °F 51.1 °F 61% 30.10 in 5.0 mi South 8.1 mph - N/A   Haze
6:53 PM 66.0 °F 52.0 °F 60% 30.06 in 10.0 mi SE 10.4 mph - N/A   Overcast
7:53 PM 66.0 °F 52.0 °F 60% 30.04 in 10.0 mi SE 9.2 mph - N/A   Overcast
8:53 PM 64.9 °F 52.0 °F 63% 30.04 in 10.0 mi SE 6.9 mph - N/A   Overcast
9:53 PM 64.9 °F 52.0 °F 63% 30.08 in 10.0 mi SSE 6.9 mph - N/A   Overcast
10:53 PM 64.9 °F 52.0 °F 63% 30.04 in 10.0 mi SSE 9.2 mph - N/A   Overcast
11:53 PM 64.9 °F 52.0 °F 63% 30.02 in 10.0 mi SSE 9.2 mph - N/A   Overcast